Regional Weather Roundup
Issued by NWS

Home | Current Version | Previous Version | Text Only | Print | Product List | Glossary Off
Versions: 1 2 3 4 5 6 7 8 9 10 11 12 13 14 15 16 17 18 19 20 21 22 23 24 25 26 27 28 29 30 31 32 33 34 35 36 37 38 39 40 41 42 43 44 45 46 47 48 49 50

000
ASUS43 KLOT 260003
RWRIL

ILLINOIS REGIONAL WEATHER ROUNDUP
NATIONAL WEATHER SERVICE CHICAGO/ROMEOVILLE IL
700 PM CDT WED APR 25 2018

NOTE: "FAIR" INDICATES FEW OR NO CLOUDS BELOW 12,000 FEET WITH NO
SIGNIFICANT WEATHER AND/OR OBSTRUCTIONS TO VISIBILITY.

* THESE STATIONS ARE NOT UNDER NWS QUALITY CONTROL. THEY ALSO MAY NOT
  REPORT WEATHER SUCH AS PRECIPITATION OR FOG.

ILZ001-002-007-009-015-016-024-260100-
NORTHWEST ILLINOIS

CITY           SKY/WX    TMP DP  RH WIND       PRES   REMARKS
MOLINE         FAIR      63  29  27 NW5       29.98F
6HR MIN TEMP:  62; 6HR MAX TEMP:  67;

STERLING*      FAIR      61  32  33 VRB6      30.00S
SAVANNA*       FAIR      62  29  29 N3        30.00S
$$

ILZ003-004-008-010-011-017-018-260100-
NORTH CENTRAL ILLINOIS

CITY           SKY/WX    TMP DP  RH WIND       PRES   REMARKS
ROCKFORD       FAIR      58  29  33 NE8       30.01F
6HR MIN TEMP:  57; 6HR MAX TEMP:  62;

FREEPORT*      FAIR      58  29  33 NE7       30.01F
ROCHELLE*      FAIR      58  31  34 N8        30.00F
DE KALB*       FAIR      53  34  50 E12       30.02S
$$

ILZ005-006-012>014-019>023-260100-
NORTHEAST ILLINOIS

CITY           SKY/WX    TMP DP  RH WIND       PRES   REMARKS
CHICAGO-OHARE  FAIR      45  30  55 NE14      30.04F
6HR MIN TEMP:  45; 6HR MAX TEMP:  52;

CHICAGO-MIDWAY FAIR      46  30  53 NE10      30.05S
6HR MIN TEMP:  46; 6HR MAX TEMP:  53;

AURORA         FAIR      51  32  48 E12       30.02S
6HR MIN TEMP:  51; 6HR MAX TEMP:  63;

LANSING*       FAIR      43  33  67 NE10      30.05S
JOLIET*        FAIR      50  33  51 E12G17    30.02S
WAUKEGAN       FAIR      41  29  62 NE8       30.05F
6HR MIN TEMP:  41; 6HR MAX TEMP:  47;

DUPAGE AIRPORT FAIR      47  31  53 NE12      30.02S
6HR MIN TEMP:  47; 6HR MAX TEMP:  60;

KANKAKEE*      FAIR      48  32  53 NE14      30.03S
WHEELING       FAIR      43  31  62 NE10      30.07F
6HR MIN TEMP:  43; 6HR MAX TEMP:  50;

MORRIS*        FAIR      54  32  44 E13       30.00S
ROMEOVILLE*    FAIR      47  32  55 NE12      30.03S
NORTHERLY ISL    N/A     40  33  76 MISG        N/A
$$

LMZ740>746-260100-
SOUTHERN LAKE MICHIGAN

STATION/POSITION SKY/WX   TEMP    WIND        PRES    VSBY  WAVE
                          AIR SEA DIR/SP/G                  HT/PER
                          (F)     (DEG/KT/KT) (MB)    (MI)  (FT/S)
HARRISON CRIB              40     360/  7/  8   N/A
BURNHAM HARBOR             40     360/  7/ 10   N/A
CALUMET HARBOR             40      10/  6/  9 1017.4F
BURNS HARBOR               40      10/  6/  8 1017.9F
MICHIGAN CITY              39     360/  9/ 10   N/A
ST. JOSEPH                 41 42   20/ 10/ 14 1017.7F         4/ 6
$$

ILZ025>027-034>036-040-047-049-050-058-095>099-260100-
WEST-CENTRAL ILLINOIS

CITY           SKY/WX    TMP DP  RH WIND       PRES   REMARKS
QUINCY         CLOUDY    59  40  49 N7        30.00F
MACOMB*        CLOUDY    60  38  43 W5        30.02F
JACKSONVILLE*  CLOUDY    60  40  48 N8        29.98F
PITTSFIELD*    CLOUDY    60  42  51 N9        30.00F
$$

ILZ028>032-037-038-041>044-048-051>054-059>061-260100-
CENTRAL ILLINOIS

CITY           SKY/WX    TMP DP  RH WIND       PRES   REMARKS
PONTIAC        FAIR      61  32  33 NE6       29.99S
BLOOMINGTON    FAIR      59  34  39 N8        29.99F
DECATUR        FAIR      59  40  49 NE8       29.98S
PEORIA         FAIR      62  31  31 NW3       29.99F
6HR MIN TEMP:  60; 6HR MAX TEMP:  64;

LACON*         FAIR      61  30  31 NE3       29.98S
LINCOLN*       FAIR      62  39  42 NW3       29.99S
SPRINGFIELD    FAIR      63  42  46 N8        29.98F
6HR MIN TEMP:  63; 6HR MAX TEMP:  68;

TAYLORVILLE    FAIR      62  42  48 N6        29.97F HAZE
6HR MIN TEMP:  62; 6HR MAX TEMP:  66;

$$

ILZ033-039-045-046-055>057-062-063-260100-
EAST-CENTRAL ILLINOIS

CITY           SKY/WX    TMP DP  RH WIND       PRES   REMARKS
CHAMPAIGN      FAIR      57  36  45 NE9       29.99S
DANVILLE*      FAIR      54  32  43 NE12      29.98S
RANTOUL*       FAIR      57  35  43 E8        30.00S
MATTOON        FAIR      61  42  49 N16       29.96S
$$

ILZ079-100>102-260100-
SOUTHWEST ILLINOIS

CITY           SKY/WX    TMP DP  RH WIND       PRES   REMARKS
ALTON          CLOUDY    63  50  63 N8        29.96F
BELLEVILLE     CLOUDY    63  51  63 N5        29.94F
CAHOKIA*       CLOUDY    63  49  60 N9        29.95F
SPARTA*        HVY RAIN  58  56  92 N12       29.96S
$$

ILZ064>066-069>071-074>076-080>082-084>086-088>090-092>094-260100-
SOUTH-CENTRAL ILLINOIS

CITY           SKY/WX    TMP DP  RH WIND       PRES   REMARKS
CARBONDALE     CLOUDY    63  52  67 N10       29.93F
6HR MIN TEMP:  63; 6HR MAX TEMP:  71;

CAIRO*         CLOUDY    63  51  66 SW13      29.93F
EFFINGHAM*     FAIR      64  46  52 N5        29.98S
MARION         PTCLDY    66  52  59 NE5       29.94S
MT. VERNON     LGT RAIN  61  55  81 CALM      29.95S
CENTRALIA*     MOCLDY    65  52  64 NE7       29.94F
SALEM*         FAIR      65  50  59 NE6       29.95F
METROPOLIS*    DRIZZLE   60  55  83 NW7       29.93F
$$

ILZ067-068-072-073-078-083-087-091-260100-
SOUTHEAST ILLINOIS

CITY           SKY/WX    TMP DP  RH WIND       PRES   REMARKS
LAWRENCEVILLE  FAIR      65  50  58 MISG      29.95F
FLORA*         FAIR      64  51  60 N7        29.95F
FAIRFIELD*     FAIR      64  51  62 N5        29.94S
HARRISBURG*    CLOUDY    66  56  71 CALM      29.93F
ROBINSON*      FAIR      61  48  62 N5        29.96S
CARMI*         FAIR      64  56  75 NE5       29.93F
$$

ABBREVIATIONS USED IN REMARKS
   TC - TEMPERATURE IN CELSIUS
  WCI - WIND CHILL INDEX
   HX - HEAT INDEX
  VSB - VISIBILITY
$$





USA.gov is the U.S. government's official web portal to all federal, state and local government web resources and services.